FW0887 Weather Reports


Display with metric or nautical units.
time (UTC)temp
F
wind
direction
speed
MPH
gust
MPH
rain 1hr
in
rain 24hr
in
rain mn
in
humidity
%
barometer
mb
20260506102305 63 225 2.0 3.0 0.00 0.87 0.00 72 1007.3
20260506101508 63 192 1.0 6.0 0.00 0.87 0.00 72 1006.5
20260506100015 62 214 0.0 7.0 0.00 0.87 0.00 72 1006.6
20260506094506 62 232 2.0 7.0 0.00 0.87 0.00 77 1006.7
20260506093001 61 231 2.0 5.0 0.00 0.87 0.00 77 1006.6
20260506092249 60 158 1.0 3.0 0.00 0.87 0.00 76 1007.3
20260506091557 60 207 0.0 4.0 0.00 0.87 0.00 77 1006.7
20260506090056 60 175 1.0 3.0 0.00 0.87 0.00 76 1006.7
20260506084558 59 221 1.0 6.0 0.00 0.87 0.00 78 1006.8
20260506083056 58 182 1.0 4.0 0.00 0.87 0.00 80 1006.8
20260506082304 58 158 2.0 5.0 0.00 0.87 0.00 83 1007.4
20260506081603 58 165 1.0 4.0 0.00 0.87 0.00 81 1006.8
20260506073041 55 179 0.0 3.0 0.00 0.87 0.00 87 1006.6
20260506071949 55 180 1.0 2.0 0.00 0.87 0.00 89 1007.0
20260506071542 54 182 0.0 3.0 0.00 0.87 0.00 89 1006.5
20260506062349 53 0.0 2.0 0.00 0.87 0.00 91 1007.0
20260506044533 51 197 1.0 4.0 0.00 0.87 0.00 92 1006.5
20260506043023 51 198 0.0 3.0 0.00 0.87 0.00 92 1006.4
20260506042153 52 0.0 1.0 0.00 0.87 0.00 92 1007.5
20260506041522 51 197 0.0 5.0 0.00 0.87 0.00 92 1006.4
20260506040022 51 212 0.0 4.0 0.00 0.87 0.00 92 1006.1
20260506034522 51 211 0.0 2.0 0.00 0.87 0.00 92 1006.2
20260506033027 51 211 0.0 2.0 0.00 0.87 0.00 92 1006.3
20260506032226 52 203 2.0 3.0 0.00 0.87 0.00 92 1007.6
20260506031538 51 211 1.0 3.0 0.00 0.87 0.00 92 1006.2
20260506030021 51 209 1.0 3.0 0.00 0.87 0.00 92 1006.5
20260506024526 51 209 0.0 1.0 0.00 0.87 0.00 91 1006.5
20260506023018 51 209 0.0 1.0 0.00 0.87 0.00 91 1006.4
20260506022157 51 203 1.0 2.0 0.00 0.87 0.00 91 1007.7
20260506021518 51 209 0.0 3.0 0.00 0.87 0.00 91 1006.5
20260506020017 51 209 0.0 5.0 0.00 0.87 0.00 91 1006.3
20260506014514 52 206 0.0 4.0 0.00 0.87 0.00 92 1006.2
20260506013017 52 206 0.0 2.0 0.00 0.87 0.00 91 1006.4
20260506012252 52 203 1.0 2.0 0.00 0.87 0.00 91 1007.8
20260506011517 52 206 0.0 3.0 0.00 0.87 0.00 91 1006.4
20260506010029 52 206 0.0 2.0 0.00 0.87 0.00 91 1006.5
20260506004509 52 222 0.0 2.0 0.00 0.87 0.00 91 1006.6
20260506003009 52 222 1.0 3.0 0.00 0.87 0.00 91 1006.5
20260506002217 53 0.0 1.0 0.00 0.87 0.00 91 1007.9
20260506001507 52 236 0.0 3.0 0.00 0.87 0.00 91 1006.6
20260506000005 53 236 0.0 2.0 0.00 0.87 0.00 91 1006.7
20260505234503 53 236 0.0 1.0 0.00 0.87 0.00 91 1006.8
20260505233002 54 236 0.0 4.0 0.00 0.87 0.00 91 1007.0
20260505231858 54 0.0 0.0 0.00 0.87 0.00 91 1008.2
20260505231854 54 0.0 1.0 0.00 0.87 0.00 91 1008.3
20260505231600 54 236 0.0 2.0 0.00 0.87 0.00 91 1006.9
20260505230100 54 236 0.0 2.0 0.00 0.87 0.00 91 1006.9
20260505224558 54 236 1.0 4.0 0.00 0.87 0.00 91 1007.0
20260505223057 54 265 0.0 2.0 0.00 0.87 0.00 91 1006.9
20260505222153 54 315 1.0 2.0 0.00 0.87 0.00 90 1008.0
20260505221556 54 313 1.0 3.0 0.00 0.87 0.00 90 1006.9
20260505220053 54 323 0.0 1.0 0.00 0.87 0.00 90 1006.7
20260505214609 54 323 0.0 0.0 0.00 0.87 0.87 89 1006.5
20260505213050 54 323 1.0 2.0 0.00 0.87 0.87 90 1006.7
20260505212125 55 0.0 1.0 0.00 0.87 0.87 89 1007.9
20260505211549 55 327 0.0 1.0 0.00 0.87 0.87 89 1006.7
20260505210048 55 327 0.0 1.0 0.00 0.87 0.87 89 1006.9
20260505204547 55 327 0.0 1.0 0.00 0.87 0.87 89 1006.8
20260505203048 55 332 0.0 2.0 0.00 0.87 0.87 89 1006.7
20260505202152 56 0.0 0.0 0.00 0.87 0.87 89 1007.4
20260505201552 55 22 0.0 0.0 0.00 0.87 0.87 89 1006.3
20260505200045 55 22 0.0 0.0 0.00 0.87 0.87 88 1006.2
20260505194545 55 22 0.0 0.0 0.01 0.87 0.87 89 1006.0
20260505193044 56 22 0.0 0.0 0.01 0.87 0.87 89 1005.7
20260505192016 56 0.0 0.0 0.01 0.87 0.87 88 1006.5
20260505191550 56 22 0.0 0.0 0.01 0.87 0.87 88 1005.7
20260505190041 56 22 0.0 1.0 0.01 0.87 0.87 88 1005.5
20260505184543 56 22 0.0 2.0 0.00 0.87 0.87 88 1005.2
20260505183102 56 44 0.0 3.0 0.04 0.87 0.87 88 1005.1
20260505182211 57 315 1.0 2.0 0.86 0.87 0.87 87 1005.8
20260505181539 57 64 0.0 3.0 0.68 0.87 0.87 87 1005.0
20260505180037 57 41 0.0 5.0 0.87 0.87 0.87 87 1004.9
20260505174537 57 295 0.0 8.0 0.87 0.87 0.87 85 1005.2
20260505173042 57 360 1.0 7.0 0.82 0.82 0.82 83 1006.0
20260505172145 63 225 4.0 6.0 0.00 0.00 0.00 73 1006.7
20260505171543 61 212 5.0 19.0 0.13 0.13 0.13 76 1006.0
20260505170031 66 269 5.0 16.0 0.00 0.00 0.00 66 1004.8
20260505164530 69 319 0.0 5.0 0.00 0.00 0.00 63 1003.2
20260505163029 70 51 1.0 5.0 0.00 0.00 0.00 62 1003.2
20260505162117 72 23 3.0 5.0 0.00 0.00 0.00 58 1004.7
20260505161529 71 319 2.0 6.0 0.00 0.00 0.00 58 1003.3
20260505153027 74 282 3.0 9.0 0.00 0.00 0.00 54 1003.2
20260505152047 74 68 4.0 7.0 0.00 0.00 0.00 53 1004.9
20260505151531 74 317 2.0 8.0 0.00 0.00 0.00 55 1003.4
20260505124514 78 194 0.0 3.0 0.00 0.00 0.00 41 1004.6
20260505123012 79 265 1.0 7.0 0.00 0.00 0.00 43 1004.7
20260505122155 77 338 1.0 2.0 0.00 0.00 0.00 47 1006.6
20260505121509 77 70 2.0 5.0 0.00 0.00 0.00 45 1004.9
20260505120021 77 123 2.0 4.0 0.00 0.00 0.00 39 1005.1
20260505114504 77 292 2.0 7.0 0.00 0.00 0.00 45 1005.3
20260505113002 76 213 1.0 4.0 0.00 0.00 0.00 44 1005.4
20260505112021 76 180 2.0 2.0 0.00 0.00 0.00 44 1007.4
20260505111558 75 173 1.0 3.0 0.00 0.00 0.00 43 1005.6